Pearl, MS

12:40 PM CDT on August 25, 2016 (GMT -0500)
Jackson-Evers International

Weather History for KJAN - December, 2011

Change the Weather History Date:

Sunday, December 18, 2011

  Actual Average Record
Temperature  
Mean Temperature 46 °F 47 °F  
Max Temperature 61 °F 57 °F 82 °F (1908)
Min Temperature 30 °F 37 °F 13 °F (1901)
Degree Days  
Heating Degree Days 19 18  
Month to date heating degree days 292 295  
Since 1 July heating degree days 694 703  
Cooling Degree Days 0 0  
Month to date cooling degree days 7 0  
Year to date cooling degree days 2681 2253  
Moisture  
Dew Point 33 °F    
Average Humidity 66    
Maximum Humidity 100    
Minimum Humidity 31    
Precipitation  
Precipitation 0.00 in 0.16 in 2.19 in (1995)
Month to date precipitation 2.34 3.11  
Year to date precipitation 45.12 52.10  
Sea Level Pressure  
Sea Level Pressure 30.36 in    
Wind  
Wind Speed 2 mph (East)    
Max Wind Speed 10 mph    
Max Gust Speed 13 mph    
Visibility 8 miles    
Events      
T = Trace of Precipitation, MM = Missing Value Source: NWS Daily Summary

Daily Weather History Graph

Daily Weather History Graph

Search for Another Location

Airport or City:

Trip Planner

Search our weather history database for the weather conditions in past years. The results will help you decide how hot, cold, wet, or windy it might be!

Date:

Astronomy

Dec. 18, 2011 Rise Set
Actual Time 6:55 AM CST 4:57 PM CST
Civil Twilight 6:28 AM CST 5:25 PM CST
Nautical Twilight 5:58 AM CST 5:55 PM CST
Astronomical Twilight 5:28 AM CST 6:25 PM CST
Moon 12:14 AM CST (12/18) 12:08 PM CST (12/18)
Length of Visible Light 10h 56m
Length of Day
10h 02m
Last Quarter, 42% of the Moon is Illuminated
Dec 18
Last Quarter
Dec 24
New
Jan 1
First Quarter
Jan 9
Full
Jan 16
Last Quarter

Hourly Weather History & Observations

Time (CST) Temp. Windchill Dew Point Humidity Pressure Visibility Wind Dir Wind Speed Gust Speed Precip Events Conditions
12:54 AM 34.0 °F - 32.0 °F 92% 30.42 in 8.0 mi Calm Calm - N/A   Clear
1:54 AM 32.0 °F - 30.9 °F 96% 30.42 in 5.0 mi Calm Calm - N/A   Clear
2:54 AM 32.0 °F - 30.0 °F 92% 30.41 in 5.0 mi Calm Calm - N/A   Clear
3:54 AM 30.9 °F - 30.0 °F 96% 30.41 in 5.0 mi Calm Calm - N/A   Clear
4:54 AM 30.0 °F - 28.9 °F 96% 30.42 in 5.0 mi Calm Calm - N/A   Clear
5:54 AM 30.2 °F - 28.4 °F 93% 30.41 in 4.0 mi Calm Calm - N/A   Clear
6:54 AM 30.0 °F - 28.0 °F 92% 30.43 in 4.0 mi Calm Calm - N/A   Clear
7:54 AM 34.0 °F - 30.9 °F 89% 30.43 in 5.0 mi Calm Calm - N/A   Clear
8:54 AM 43.0 °F - 37.0 °F 80% 30.44 in 4.0 mi Calm Calm - N/A   Haze
9:54 AM 50.0 °F - 37.0 °F 61% 30.45 in 10.0 mi NE 4.6 mph - N/A   Clear
10:54 AM 55.0 °F - 30.9 °F 40% 30.42 in 10.0 mi East 5.8 mph - N/A   Clear
11:54 AM 55.9 °F - 28.9 °F 36% 30.40 in 10.0 mi ENE 4.6 mph - N/A   Clear
12:54 PM 57.2 °F - 30.2 °F 36% 30.36 in 10.0 mi Calm Calm - N/A   Clear
1:54 PM 59.0 °F - 28.9 °F 32% 30.33 in 10.0 mi Calm Calm - N/A   Clear
2:54 PM 60.1 °F - 30.0 °F 32% 30.32 in 10.0 mi Variable 3.5 mph - N/A   Clear
3:54 PM 57.0 °F - 34.0 °F 42% 30.30 in 10.0 mi NE 5.8 mph - N/A   Clear
4:54 PM 52.0 °F - 39.0 °F 61% 30.30 in 10.0 mi NE 4.6 mph - N/A   Scattered Clouds
5:54 PM 48.0 °F - 39.9 °F 74% 30.31 in 10.0 mi Calm Calm - N/A   Scattered Clouds
6:54 PM 46.9 °F - 39.0 °F 74% 30.31 in 10.0 mi Calm Calm - N/A   Partly Cloudy
7:54 PM 46.0 °F - 37.9 °F 73% 30.30 in 10.0 mi Calm Calm - N/A   Clear
8:54 PM 45.0 °F - 37.9 °F 76% 30.30 in 10.0 mi Calm Calm - N/A   Clear
9:54 PM 43.0 °F 40.3 °F 37.0 °F 80% 30.29 in 10.0 mi SE 4.6 mph - N/A   Clear
10:54 PM 39.9 °F 34.5 °F 35.1 °F 83% 30.28 in 10.0 mi SSE 8.1 mph - N/A   Clear
11:54 PM 39.9 °F 35.8 °F 34.0 °F 79% 30.26 in 10.0 mi SSE 5.8 mph - N/A   Clear